Regional Weather Roundup
Issued by NWS

Home | Current Version | Previous Version | Text Only | Print | Product List | Glossary Off
Versions: 1 2 3 4 5 6 7 8 9 10 11 12 13 14 15 16 17 18 19 20 21 22 23 24 25 26 27 28 29 30 31 32 33 34 35 36 37 38 39 40 41 42 43 44 45 46 47 48 49 50

000
ASUS43 KLMK 240810
RWRKY
KENTUCKY REGIONAL WEATHER ROUNDUP
NATIONAL WEATHER SERVICE LOUISVILLE KY
400 AM EDT WED AUG 24 2016

NOTE "FAIR" INDICATES FEW OR NO CLOUDS BELOW 12,000 FEET
WITH NO SIGNIFICANT WEATHER AND/OR OBSTRUCTIONS TO VISIBILITY.

KYZ001>023-026-027-061>063-070>075-240900-
WESTERN AND SOUTH CENTRAL KENTUCKY

CITY           SKY/WX    TMP DP  RH WIND       PRES   REMARKS
PADUCAH        CLEAR     73  70  90 SE3       30.12S
HENDERSON      CLEAR     72  66  83 S3        30.13S
OWENSBORO      CLEAR     71  68  90 SE6       30.16S
HOPKINSVILLE   CLEAR     75  71  88 SE5       30.15F
BOWLING GREEN  CLOUDY    70  68  93 CALM      30.18F
GLASGOW        CLEAR     66  66 100 CALM      30.19S
$$

KYZ024-025-028>034-038-045-046-053-240900-
NORTH CENTRAL KENTUCKY

CITY           SKY/WX    TMP DP  RH WIND       PRES   REMARKS
LOUISVILLE/SDF PTCLDY    72  65  78 SE5       30.17S
LOUISVILLE/LOU PTCLDY    72  65  78 CALM      30.18S
FORT KNOX      CLOUDY    67  66  96 CALM      30.17S
$$

KYZ035>037-039>044-047>052-055>060-089>105-240900-
NORTHEAST KENTUCKY

CITY           SKY/WX    TMP DP  RH WIND       PRES   REMARKS
LEXINGTON      PTCLDY    67  62  84 SE6       30.21F
COVINGTON      MOCLDY    68  62  81 S3        30.18F
FRANKFORT      CLEAR     67  62  84 SE3       30.18F
$$

KYZ054-064>069-076>088-106>120-240900-
SOUTHEAST KENTUCKY

CITY           SKY/WX    TMP DP  RH WIND       PRES   REMARKS
JACKSON        PTCLDY    67  61  81 SE3       30.24S
LONDON         CLEAR     65  62  90 CALM      30.23F
SOMERSET       PTCLDY    63  63 100 CALM      30.23F
MIDDLESBORO    PTCLDY    62  62 100 CALM      30.26S
MONTICELLO     NOT AVBL
$$





USA.gov is the U.S. government's official web portal to all federal, state and local government web resources and services.